SL-16 DEB, 39718

Orbit data source: Space-Track

SL-16 DEB, 39718 is space debris in LEO originally from a launch on Fri, 25 Dec 1992 UTC launched from the Tyuratam Missile And Space Complex (TTMTR). Debris objects in space refer to the collection of defunct objects orbiting the Earth. Examples of debris include non-operational satellites, rocket bodies, and fragments generated from explosions, collisions, or faulty payload assembly.

Loading next visibility...
Identifier
39718, 1992-093KJ
Orbit
LEO
Country
Flag of CISCIS
Related business
Manufacturer
Unknown
Mission
Spacecraft
Bus & Motor
Unknown
Mass
Unknown
Launch date (UTC)
1992-12-25 (33 years ago)
Launch vehicle
Unknown
Launch site
Tyuratam Missile And Space Complex (TTMTR)
Object type
Payload
Rocket body
Debris
Shape & HBR
Unknown shape, 0.1 m
Radar Cross Section
Small (<0.1 m²)

Expand to show TLE details & history
Last TLE update: 19 hours ago

TLE from 19 hours ago
0 SL-16 DEB
1 39718U 92093KJ  26126.54787535  .00004679  00000-0  10059-2 0  9995
2 39718  71.1846 323.4018 0027370 210.8108 149.1434 14.58811266633300
Epoch: 2026-05-06T13:08Z
TLE epoch observation values (Epoch: 2026-05-06T13:08:56.430Z)
Latitude
-0.00001°
Longitude
-98.24012°
Altitude
716.117 km
Speed
7.489 km/s
True Right ascension
21h 33m 36s
True Declination
0° 00' 00"
Sunlit
Object was in daylight at epoch
Visualization orbit readout
Latitude
Unknown
Longitude
Unknown
Altitude
Unknown
Speed
Unknown
Apparent Right ascension
Unknown
Apparent Declination
Unknown
Sunlit
N/A
Visualization observer readout
Local Sidereal Time
16:19:51
Azimuth
Unknown
Elevation
Unknown
Doppler factor
Unknown
Orbital elements
Apogee altitude
714.237 km
Perigee altitude
675.52 km
Semi-major axis
7,073.016 km
Eccentricity
0.00274
Inclination
71.1846°
RAAN
323.4018°
Arg. of periapsis
210.8108°
True anomaly
149.30379°
Mean anomaly
149.1434°
Eccentric anomaly
149.22364°
Mean motion
3.64868 °/min
Orbital period
98.67 mins
BSTAR
0.0010059
Loading maneuver chart data...
Computing Atmospheric mass density...
Loading historical data...
Loading historical data...
Loading historical data...
Loading historical data...
Loading historical data...
Loading historical data...
Loading historical data...

Documentation

Showing up to 5 results
|